Location: Borbetomagus
(49.6328°N, 8.3592°E)
Time: 17:06:52
(UTC+00:00)

Okean 3 Rocket - Pass Details

Date: 19 May 2025
Orbit: 610 x 638 km, 82.5° (Epoch: 17 June)

Event Time Altitude Azimuth Distance (km) Brightness Sun altitude
Rises 21:51:04 0° 353° (N) 2,900 8.5 -17.5°
Reaches altitude 10° 21:53:21 10° 359° (N) 1,993 7.2 -17.6°
Maximum altitude 21:57:39 51° 76° (ENE) 785 4.0 -17.9°
Enters shadow 21:59:13 34° 131° (SE) 1,030 4.2 -17.9°
